Time,TemperatureF,DewpointF,PressureIn,WindDirection,WindDirectionDegrees,WindSpeedMPH,WindSpeedGustMPH,Humidity,HourlyPrecipIn,Conditions,Clouds,dailyrainin,SoftwareType,DateUTC
2013-05-22 00:01:00,65.7,64.4,29.79,NE,35,0.0,0.0,96,0.00,,,0.00,meteohub,2013-05-22 04:01:00,
2013-05-22 00:02:00,65.7,64.4,29.79,NE,35,0.0,0.0,96,0.00,,,0.00,meteohub,2013-05-22 04:02:00,
2013-05-22 00:03:00,65.7,64.4,29.79,NE,35,0.0,0.0,96,0.00,,,0.00,meteohub,2013-05-22 04:03:00,
2013-05-22 00:05:00,65.5,64.2,29.79,NE,35,0.0,0.0,96,0.00,,,0.00,meteohub,2013-05-22 04:05:00,
2013-05-22 00:10:00,65.5,64.2,29.79,NE,36,0.0,0.0,96,0.00,,,0.00,meteohub,2013-05-22 04:10:00,
2013-05-22 00:15:00,65.5,64.2,29.79,NE,35,0.0,0.0,96,0.00,,,0.00,meteohub,2013-05-22 04:15:00,
2013-05-22 00:20:00,65.3,64.0,29.80,NE,35,0.0,0.0,96,0.00,,,0.00,meteohub,2013-05-22 04:20:00,
2013-05-22 00:25:00,65.1,64.0,29.79,NE,35,0.0,0.0,96,0.00,,,0.00,meteohub,2013-05-22 04:25:00,
2013-05-22 00:30:00,65.1,64.2,29.79,NE,36,0.0,0.0,97,0.00,,,0.00,meteohub,2013-05-22 04:30:00,
2013-05-22 00:35:00,65.1,64.2,29.79,NE,35,0.0,0.0,97,0.00,,,0.00,meteohub,2013-05-22 04:35:00,
2013-05-22 00:40:00,64.9,64.0,29.80,NE,36,0.0,0.0,97,0.00,,,0.00,meteohub,2013-05-22 04:40:00,
2013-05-22 00:45:00,64.8,63.9,29.80,NE,36,0.0,0.0,97,0.00,,,0.00,meteohub,2013-05-22 04:45:00,
2013-05-22 00:50:00,64.8,63.9,29.80,NE,36,0.0,0.0,97,0.00,,,0.00,meteohub,2013-05-22 04:50:00,
2013-05-22 00:55:00,64.8,63.9,29.80,NE,35,0.0,0.0,97,0.00,,,0.00,meteohub,2013-05-22 04:55:00,
2013-05-22 01:00:00,64.9,64.0,29.80,NE,36,0.0,0.0,97,0.00,,,0.00,meteohub,2013-05-22 05:00:00,
2013-05-22 01:05:00,64.8,63.9,29.80,NE,36,0.0,0.0,97,0.00,,,0.00,meteohub,2013-05-22 05:05:00,
2013-05-22 01:10:00,64.8,63.9,29.80,NE,35,0.0,0.0,97,0.00,,,0.00,meteohub,2013-05-22 05:10:00,
2013-05-22 01:16:00,64.8,63.9,29.80,NE,36,0.0,0.0,97,0.00,,,0.00,meteohub,2013-05-22 05:16:00,
2013-05-22 01:21:00,64.6,63.7,29.80,NE,35,0.0,0.0,97,0.00,,,0.00,meteohub,2013-05-22 05:21:00,
2013-05-22 01:26:00,64.6,63.7,29.80,NE,36,0.0,0.0,97,0.00,,,0.00,meteohub,2013-05-22 05:26:00,
2013-05-22 01:31:00,64.4,63.5,29.80,NE,35,0.0,0.0,97,0.00,,,0.00,meteohub,2013-05-22 05:31:00,
2013-05-22 01:36:00,64.2,63.3,29.80,NE,36,0.0,0.0,97,0.00,,,0.00,meteohub,2013-05-22 05:36:00,
2013-05-22 01:41:00,63.9,63.0,29.80,NE,36,0.0,0.0,97,0.00,,,0.00,meteohub,2013-05-22 05:41:00,
2013-05-22 01:46:00,63.9,63.0,29.79,NE,35,0.0,0.0,97,0.00,,,0.00,meteohub,2013-05-22 05:46:00,
2013-05-22 01:51:00,64.0,63.5,29.79,NE,36,0.0,0.0,98,0.00,,,0.00,meteohub,2013-05-22 05:51:00,
2013-05-22 01:56:00,63.9,63.3,29.78,NE,36,0.0,0.0,98,0.00,,,0.00,meteohub,2013-05-22 05:56:00,
2013-05-22 02:01:00,63.9,63.3,29.79,NE,36,0.0,0.0,98,0.00,,,0.00,meteohub,2013-05-22 06:01:00,
2013-05-22 02:06:00,63.7,63.1,29.79,NE,36,0.0,0.0,98,0.00,,,0.00,meteohub,2013-05-22 06:06:00,
2013-05-22 02:11:00,63.3,62.4,29.78,NE,36,0.0,0.0,97,0.00,,,0.00,meteohub,2013-05-22 06:11:00,
2013-05-22 02:16:00,63.3,62.8,29.78,NE,36,0.0,0.0,98,0.00,,,0.00,meteohub,2013-05-22 06:16:00,
2013-05-22 02:21:00,63.7,63.1,29.78,NE,36,0.0,0.0,98,0.00,,,0.00,meteohub,2013-05-22 06:21:00,
2013-05-22 02:26:00,63.5,63.0,29.78,NE,35,0.0,0.0,98,0.00,,,0.00,meteohub,2013-05-22 06:26:00,
2013-05-22 02:31:00,63.5,63.0,29.78,NE,35,0.0,0.0,98,0.00,,,0.00,meteohub,2013-05-22 06:31:00,
2013-05-22 02:37:00,63.1,62.6,29.78,NE,35,0.0,0.0,98,0.00,,,0.00,meteohub,2013-05-22 06:37:00,
2013-05-22 02:42:00,63.1,62.6,29.78,NE,35,0.0,0.0,98,0.00,,,0.00,meteohub,2013-05-22 06:42:00,
2013-05-22 02:47:00,63.1,62.6,29.78,NE,36,0.0,0.0,98,0.00,,,0.00,meteohub,2013-05-22 06:47:00,
2013-05-22 02:52:00,63.1,62.6,29.78,NE,36,0.0,0.0,98,0.00,,,0.00,meteohub,2013-05-22 06:52:00,
2013-05-22 02:57:00,63.0,62.4,29.78,NE,36,0.0,0.0,98,0.00,,,0.00,meteohub,2013-05-22 06:57:00,
2013-05-22 03:02:00,63.0,62.4,29.78,NE,35,0.0,0.0,98,0.00,,,0.00,meteohub,2013-05-22 07:02:00,
2013-05-22 03:07:00,62.8,62.2,29.78,NE,36,0.0,0.0,98,0.00,,,0.00,meteohub,2013-05-22 07:07:00,
2013-05-22 03:12:00,63.0,62.4,29.78,NE,35,0.0,0.0,98,0.00,,,0.00,meteohub,2013-05-22 07:12:00,
2013-05-22 03:17:00,63.1,62.6,29.78,NE,35,0.0,0.0,98,0.00,,,0.00,meteohub,2013-05-22 07:17:00,
2013-05-22 03:22:00,63.0,62.4,29.78,NE,35,0.0,0.0,98,0.00,,,0.00,meteohub,2013-05-22 07:22:00,
2013-05-22 03:27:00,62.8,62.2,29.78,NE,36,0.0,0.0,98,0.00,,,0.00,meteohub,2013-05-22 07:27:00,
2013-05-22 03:32:00,62.6,62.1,29.78,NE,36,0.0,0.0,98,0.00,,,0.00,meteohub,2013-05-22 07:32:00,
2013-05-22 03:37:00,62.4,61.9,29.78,NE,36,0.0,0.0,98,0.00,,,0.00,meteohub,2013-05-22 07:37:00,
2013-05-22 03:42:00,62.8,62.2,29.78,NE,36,0.0,0.0,98,0.00,,,0.00,meteohub,2013-05-22 07:42:00,
2013-05-22 03:47:00,62.6,62.1,29.78,NE,35,0.0,0.0,98,0.00,,,0.00,meteohub,2013-05-22 07:47:00,
2013-05-22 03:52:00,62.6,62.1,29.78,NE,35,0.0,0.0,98,0.00,,,0.00,meteohub,2013-05-22 07:52:00,
2013-05-22 03:57:00,62.4,61.9,29.78,NE,35,0.0,0.0,98,0.00,,,0.00,meteohub,2013-05-22 07:57:00,
2013-05-22 04:02:00,62.2,61.7,29.78,NE,36,0.0,0.0,98,0.00,,,0.00,meteohub,2013-05-22 08:02:00,
2013-05-22 04:07:00,62.1,61.5,29.78,NE,35,0.0,0.0,98,0.00,,,0.00,meteohub,2013-05-22 08:07:00,
2013-05-22 04:12:00,62.2,61.7,29.78,NE,35,0.0,0.0,98,0.00,,,0.00,meteohub,2013-05-22 08:12:00,
2013-05-22 04:17:00,62.2,61.7,29.78,NE,35,0.0,0.0,98,0.00,,,0.00,meteohub,2013-05-22 08:17:00,
2013-05-22 04:22:00,62.2,61.7,29.78,NE,35,0.0,0.0,98,0.00,,,0.00,meteohub,2013-05-22 08:22:00,
2013-05-22 04:27:00,61.9,61.3,29.78,NE,36,0.0,0.0,98,0.00,,,0.00,meteohub,2013-05-22 08:27:00,
2013-05-22 04:32:00,62.1,61.5,29.78,NE,35,0.0,0.0,98,0.00,,,0.00,meteohub,2013-05-22 08:32:00,
2013-05-22 04:37:00,61.9,61.3,29.78,NE,36,0.0,0.0,98,0.00,,,0.00,meteohub,2013-05-22 08:37:00,
2013-05-22 04:42:00,61.5,61.0,29.78,NE,35,0.0,0.0,98,0.00,,,0.00,meteohub,2013-05-22 08:42:00,
2013-05-22 04:47:00,61.5,61.0,29.78,NE,35,0.0,0.0,98,0.00,,,0.00,meteohub,2013-05-22 08:47:00,
2013-05-22 04:52:00,61.5,61.0,29.78,NE,36,0.0,0.0,98,0.00,,,0.00,meteohub,2013-05-22 08:52:00,
2013-05-22 04:57:00,61.3,60.8,29.78,NE,35,0.0,0.0,98,0.00,,,0.00,meteohub,2013-05-22 08:57:00,
2013-05-22 05:02:00,61.3,60.8,29.78,NE,35,0.0,0.0,98,0.00,,,0.00,meteohub,2013-05-22 09:02:00,
2013-05-22 05:07:00,61.3,60.8,29.78,NE,36,0.0,0.0,98,0.00,,,0.00,meteohub,2013-05-22 09:07:00,
2013-05-22 05:12:00,61.2,60.6,29.78,NE,36,0.0,0.0,98,0.00,,,0.00,meteohub,2013-05-22 09:12:00,
2013-05-22 05:17:00,61.5,61.2,29.78,NE,35,0.0,0.0,99,0.00,,,0.00,meteohub,2013-05-22 09:17:00,
2013-05-22 05:22:00,61.5,61.2,29.78,NE,35,0.0,0.0,99,0.00,,,0.00,meteohub,2013-05-22 09:22:00,
2013-05-22 05:27:00,61.5,61.2,29.78,NE,36,0.0,0.0,99,0.00,,,0.00,meteohub,2013-05-22 09:27:00,
2013-05-22 05:32:00,61.5,61.2,29.78,NE,35,0.0,0.0,99,0.00,,,0.00,meteohub,2013-05-22 09:32:00,
2013-05-22 05:37:00,61.3,61.0,29.79,NE,36,0.0,0.0,99,0.00,,,0.00,meteohub,2013-05-22 09:37:00,
2013-05-22 05:42:00,61.3,61.0,29.79,NE,35,0.0,0.0,99,0.00,,,0.00,meteohub,2013-05-22 09:42:00,
2013-05-22 05:47:00,61.2,60.8,29.79,NE,36,0.0,0.0,99,0.00,,,0.00,meteohub,2013-05-22 09:47:00,
2013-05-22 05:52:00,61.2,60.8,29.79,NE,35,0.0,0.0,99,0.00,,,0.00,meteohub,2013-05-22 09:52:00,
2013-05-22 05:57:00,61.2,60.8,29.79,NE,35,0.0,0.0,99,0.00,,,0.00,meteohub,2013-05-22 09:57:00,
2013-05-22 06:02:00,61.2,60.8,29.79,NE,36,0.0,0.0,99,0.00,,,0.00,meteohub,2013-05-22 10:02:00,
2013-05-22 06:07:00,61.2,60.8,29.79,NE,36,0.0,0.0,99,0.00,,,0.00,meteohub,2013-05-22 10:07:00,
2013-05-22 06:12:00,61.0,60.6,29.79,NE,35,0.0,0.0,99,0.00,,,0.00,meteohub,2013-05-22 10:12:00,
2013-05-22 06:17:00,61.0,60.6,29.79,NE,36,0.0,0.0,99,0.00,,,0.00,meteohub,2013-05-22 10:17:00,
2013-05-22 06:22:00,61.0,60.6,29.80,NE,36,0.0,0.0,99,0.00,,,0.00,meteohub,2013-05-22 10:22:00,
2013-05-22 06:27:00,61.0,60.6,29.80,NE,35,0.0,0.0,99,0.00,,,0.00,meteohub,2013-05-22 10:27:00,
2013-05-22 06:32:00,61.0,60.6,29.81,NE,36,0.0,0.0,99,0.00,,,0.00,meteohub,2013-05-22 10:32:00,
2013-05-22 06:37:00,61.2,60.8,29.80,NE,35,0.0,0.0,99,0.00,,,0.00,meteohub,2013-05-22 10:37:00,
2013-05-22 06:42:00,61.5,61.2,29.81,NE,36,0.0,0.0,99,0.00,,,0.00,meteohub,2013-05-22 10:42:00,
2013-05-22 06:47:00,61.9,61.5,29.81,NE,36,0.0,0.0,99,0.00,,,0.00,meteohub,2013-05-22 10:47:00,
2013-05-22 06:52:00,62.1,61.7,29.81,NE,35,0.0,0.0,99,0.00,,,0.00,meteohub,2013-05-22 10:52:00,
2013-05-22 06:57:00,62.4,62.1,29.81,NE,35,0.0,0.0,99,0.00,,,0.00,meteohub,2013-05-22 10:57:00,
2013-05-22 07:02:00,62.8,62.4,29.81,NE,35,0.0,0.0,99,0.00,,,0.00,meteohub,2013-05-22 11:02:00,
2013-05-22 07:07:00,63.1,62.8,29.81,NE,35,0.0,0.0,99,0.00,,,0.00,meteohub,2013-05-22 11:07:00,
2013-05-22 07:12:00,63.3,63.0,29.81,NE,35,0.0,0.0,99,0.00,,,0.00,meteohub,2013-05-22 11:12:00,
2013-05-22 07:17:00,63.9,63.5,29.81,NE,35,0.0,0.0,99,0.00,,,0.00,meteohub,2013-05-22 11:17:00,
2013-05-22 07:22:00,64.6,64.2,29.81,NE,35,0.0,0.0,99,0.00,,,0.00,meteohub,2013-05-22 11:22:00,
2013-05-22 07:27:00,64.9,64.6,29.81,NE,35,0.0,0.0,99,0.00,,,0.00,meteohub,2013-05-22 11:27:00,
2013-05-22 07:32:00,64.9,64.6,29.81,NE,36,0.0,0.0,99,0.00,,,0.00,meteohub,2013-05-22 11:32:00,
2013-05-22 07:37:00,65.3,64.9,29.81,NE,35,0.0,0.0,99,0.00,,,0.00,meteohub,2013-05-22 11:37:00,
2013-05-22 07:42:00,65.8,65.5,29.81,NE,36,0.0,0.0,99,0.00,,,0.00,meteohub,2013-05-22 11:42:00,
2013-05-22 07:47:00,66.0,65.7,29.82,NE,36,0.0,0.0,99,0.00,,,0.00,meteohub,2013-05-22 11:47:00,
2013-05-22 07:52:00,66.4,66.0,29.82,NE,35,0.0,0.0,99,0.00,,,0.00,meteohub,2013-05-22 11:52:00,
2013-05-22 07:57:00,67.1,67.1,29.82,NE,36,0.0,0.0,100,0.00,,,0.00,meteohub,2013-05-22 11:57:00,
2013-05-22 08:02:00,67.6,67.6,29.82,NE,35,0.0,0.0,100,0.00,,,0.00,meteohub,2013-05-22 12:02:00,
2013-05-22 08:07:00,67.8,67.8,29.82,NE,35,0.0,0.0,100,0.00,,,0.00,meteohub,2013-05-22 12:07:00,
2013-05-22 08:12:00,68.2,68.2,29.82,NE,36,0.0,0.0,100,0.00,,,0.00,meteohub,2013-05-22 12:12:00,
2013-05-22 08:17:00,68.4,68.4,29.82,NE,36,0.0,0.0,100,0.00,,,0.00,meteohub,2013-05-22 12:17:00,
2013-05-22 08:22:00,68.5,68.5,29.82,NE,37,0.0,0.0,100,0.00,,,0.00,meteohub,2013-05-22 12:22:00,
2013-05-22 08:27:00,68.7,68.4,29.83,NE,36,0.0,0.0,99,0.00,,,0.00,meteohub,2013-05-22 12:27:00,
2013-05-22 08:32:00,69.1,68.7,29.83,NE,37,0.0,0.0,99,0.00,,,0.00,meteohub,2013-05-22 12:32:00,
2013-05-22 08:37:00,69.1,68.7,29.83,NE,37,0.0,0.0,99,0.00,,,0.00,meteohub,2013-05-22 12:37:00,
2013-05-22 08:42:00,69.4,69.1,29.83,NE,37,0.0,0.0,99,0.00,,,0.00,meteohub,2013-05-22 12:42:00,
2013-05-22 08:47:00,69.6,69.3,29.83,NE,37,0.0,0.0,99,0.00,,,0.00,meteohub,2013-05-22 12:47:00,
2013-05-22 08:52:00,69.8,69.4,29.83,NE,37,0.0,0.0,99,0.00,,,0.00,meteohub,2013-05-22 12:52:00,
2013-05-22 08:57:00,70.0,69.6,29.83,NE,37,0.0,0.0,99,0.00,,,0.00,meteohub,2013-05-22 12:57:00,
2013-05-22 09:02:00,70.2,69.8,29.83,NE,37,0.0,0.0,99,0.00,,,0.00,meteohub,2013-05-22 13:02:00,
2013-05-22 09:07:00,70.2,69.8,29.83,NE,37,0.0,0.0,99,0.00,,,0.00,meteohub,2013-05-22 13:07:00,
2013-05-22 09:12:00,70.3,70.0,29.83,NE,37,0.0,0.0,99,0.00,,,0.00,meteohub,2013-05-22 13:12:00,
2013-05-22 09:17:00,70.2,69.8,29.83,WSW,253,0.0,0.0,99,0.00,,,0.00,meteohub,2013-05-22 13:17:00,
2013-05-22 09:22:00,70.3,70.0,29.83,WSW,252,0.0,0.0,99,0.00,,,0.00,meteohub,2013-05-22 13:22:00,
2013-05-22 09:27:00,70.5,70.2,29.83,ESE,107,0.0,0.0,99,0.00,,,0.00,meteohub,2013-05-22 13:27:00,
2013-05-22 09:32:00,70.5,70.2,29.83,ESE,107,0.0,0.0,99,0.00,,,0.00,meteohub,2013-05-22 13:32:00,
2013-05-22 09:37:00,70.5,70.0,29.83,East,96,0.0,0.0,98,0.00,,,0.00,meteohub,2013-05-22 13:37:00,
2013-05-22 09:42:00,70.3,69.8,29.83,ENE,72,0.0,1.0,98,0.00,,,0.00,meteohub,2013-05-22 13:42:00,
2013-05-22 09:47:00,70.7,70.2,29.83,ENE,72,0.0,2.0,98,0.00,,,0.00,meteohub,2013-05-22 13:47:00,
2013-05-22 09:52:00,71.1,70.5,29.83,ENE,72,0.0,2.0,98,0.00,,,0.00,meteohub,2013-05-22 13:52:00,
2013-05-22 09:57:00,70.9,70.3,29.84,WSW,239,1.0,1.0,98,0.00,,,0.00,meteohub,2013-05-22 13:57:00,
2013-05-22 10:02:00,70.9,70.3,29.84,ESE,118,0.0,2.0,98,0.00,,,0.00,meteohub,2013-05-22 14:02:00,
2013-05-22 10:07:00,70.9,70.3,29.84,ESE,105,1.0,2.0,98,0.00,,,0.00,meteohub,2013-05-22 14:07:00,
2013-05-22 10:12:00,71.1,70.2,29.84,SW,217,0.0,2.0,97,0.00,,,0.00,meteohub,2013-05-22 14:12:00,
2013-05-22 10:17:00,71.2,70.3,29.84,ESE,117,1.0,2.0,97,0.00,,,0.00,meteohub,2013-05-22 14:17:00,
2013-05-22 10:22:00,71.2,70.3,29.84,SE,127,1.0,2.0,97,0.00,,,0.00,meteohub,2013-05-22 14:22:00,
2013-05-22 10:27:00,71.4,70.5,29.84,SSE,148,1.0,3.0,97,0.00,,,0.00,meteohub,2013-05-22 14:27:00,
2013-05-22 10:32:00,71.4,70.5,29.84,ENE,77,0.0,4.0,97,0.00,,,0.00,meteohub,2013-05-22 14:32:00,
2013-05-22 10:37:00,71.8,70.9,29.84,SSW,198,1.0,4.0,97,0.00,,,0.00,meteohub,2013-05-22 14:37:00,
2013-05-22 10:42:00,71.8,70.5,29.84,West,259,0.0,4.0,96,0.00,,,0.00,meteohub,2013-05-22 14:42:00,
2013-05-22 10:47:00,72.0,70.5,29.84,SSW,205,0.0,3.0,95,0.00,,,0.00,meteohub,2013-05-22 14:47:00,
2013-05-22 10:52:00,72.1,70.7,29.84,WSW,243,1.0,3.0,95,0.00,,,0.00,meteohub,2013-05-22 14:52:00,
2013-05-22 10:57:00,72.7,71.2,29.84,ESE,110,0.0,3.0,95,0.00,,,0.00,meteohub,2013-05-22 14:57:00,
2013-05-22 11:02:00,72.7,70.9,29.84,SE,125,1.0,3.0,94,0.00,,,0.00,meteohub,2013-05-22 15:02:00,
2013-05-22 11:07:00,72.7,70.9,29.84,SSE,158,2.0,3.0,94,0.00,,,0.00,meteohub,2013-05-22 15:07:00,
2013-05-22 11:12:00,72.9,71.1,29.84,SE,133,0.0,5.0,94,0.00,,,0.00,meteohub,2013-05-22 15:12:00,
2013-05-22 11:17:00,73.0,71.2,29.84,SW,229,0.0,5.0,94,0.00,,,0.00,meteohub,2013-05-22 15:17:00,
2013-05-22 11:22:00,73.4,71.6,29.83,ENE,57,0.0,2.0,94,0.00,,,0.00,meteohub,2013-05-22 15:22:00,
2013-05-22 11:27:00,73.6,71.4,29.83,ENE,75,1.0,2.0,93,0.00,,,0.00,meteohub,2013-05-22 15:27:00,
2013-05-22 11:32:00,73.8,71.6,29.83,ENE,73,0.0,4.0,93,0.00,,,0.00,meteohub,2013-05-22 15:32:00,
2013-05-22 11:37:00,74.1,72.0,29.83,West,277,1.0,5.0,93,0.00,,,0.00,meteohub,2013-05-22 15:37:00,
2013-05-22 11:42:00,74.5,71.6,29.83,ENE,76,0.0,5.0,91,0.00,,,0.00,meteohub,2013-05-22 15:42:00,
2013-05-22 11:47:00,74.7,71.6,29.83,SW,226,3.0,4.0,90,0.00,,,0.00,meteohub,2013-05-22 15:47:00,
2013-05-22 11:52:00,74.8,71.4,29.83,ESE,115,0.0,4.0,89,0.00,,,0.00,meteohub,2013-05-22 15:52:00,
2013-05-22 11:57:00,75.4,72.0,29.82,SW,231,1.0,5.0,89,0.00,,,0.00,meteohub,2013-05-22 15:57:00,
2013-05-22 12:02:00,75.9,72.1,29.82,SE,132,1.0,5.0,88,0.00,,,0.00,meteohub,2013-05-22 16:02:00,
2013-05-22 12:07:00,76.5,72.3,29.82,SSW,197,1.0,5.0,87,0.00,,,0.00,meteohub,2013-05-22 16:07:00,
2013-05-22 12:12:00,77.0,72.5,29.82,SSW,209,1.0,4.0,86,0.00,,,0.00,meteohub,2013-05-22 16:12:00,
2013-05-22 12:17:00,77.4,72.5,29.82,SW,233,1.0,4.0,85,0.00,,,0.00,meteohub,2013-05-22 16:17:00,
2013-05-22 12:22:00,77.5,72.3,29.82,West,259,0.0,5.0,84,0.00,,,0.00,meteohub,2013-05-22 16:22:00,
2013-05-22 12:27:00,78.1,72.1,29.82,SW,221,1.0,5.0,82,0.00,,,0.00,meteohub,2013-05-22 16:27:00,
2013-05-22 12:32:00,79.0,73.0,29.82,East,84,2.0,5.0,82,0.00,,,0.00,meteohub,2013-05-22 16:32:00,
2013-05-22 12:37:00,79.9,74.3,29.82,South,186,4.0,4.0,83,0.00,,,0.00,meteohub,2013-05-22 16:37:00,
2013-05-22 12:42:00,80.2,72.3,29.81,SW,236,0.0,4.0,77,0.00,,,0.00,meteohub,2013-05-22 16:42:00,
2013-05-22 12:47:00,80.4,73.2,29.81,SE,129,3.0,4.0,79,0.00,,,0.00,meteohub,2013-05-22 16:47:00,
2013-05-22 12:52:00,80.4,73.8,29.81,SE,134,1.0,7.0,80,0.00,,,0.00,meteohub,2013-05-22 16:52:00,
2013-05-22 12:57:00,80.6,73.0,29.81,SW,218,0.0,7.0,78,0.00,,,0.00,meteohub,2013-05-22 16:57:00,
2013-05-22 13:02:00,80.8,73.2,29.81,SE,139,4.0,6.0,78,0.00,,,0.00,meteohub,2013-05-22 17:02:00,
2013-05-22 13:07:00,81.0,73.8,29.81,SW,235,1.0,9.0,79,0.00,,,0.00,meteohub,2013-05-22 17:07:00,
2013-05-22 13:12:00,81.1,73.6,29.81,NE,48,0.0,9.0,78,0.00,,,0.00,meteohub,2013-05-22 17:12:00,
2013-05-22 13:17:00,81.1,73.6,29.81,South,187,2.0,9.0,78,0.00,,,0.00,meteohub,2013-05-22 17:17:00,
2013-05-22 13:22:00,82.2,74.3,29.81,SSE,158,0.0,4.0,77,0.00,,,0.00,meteohub,2013-05-22 17:22:00,
2013-05-22 13:27:00,82.6,74.3,29.81,SSW,203,3.0,3.0,76,0.00,,,0.00,meteohub,2013-05-22 17:27:00,
2013-05-22 13:32:00,82.8,74.5,29.80,West,261,2.0,4.0,76,0.00,,,0.00,meteohub,2013-05-22 17:32:00,
2013-05-22 13:37:00,82.9,75.0,29.80,SW,226,0.0,4.0,77,0.00,,,0.00,meteohub,2013-05-22 17:37:00,
2013-05-22 13:42:00,82.9,74.1,29.80,North,0,2.0,4.0,75,0.00,,,0.00,meteohub,2013-05-22 17:42:00,
2013-05-22 13:48:00,82.8,73.6,29.80,North,5,0.0,4.0,74,0.00,,,0.00,meteohub,2013-05-22 17:48:00,
2013-05-22 13:53:00,83.1,75.2,29.79,WNW,287,1.0,5.0,77,0.00,,,0.00,meteohub,2013-05-22 17:53:00,
2013-05-22 13:58:00,83.5,73.9,29.79,SW,228,1.0,5.0,73,0.00,,,0.00,meteohub,2013-05-22 17:58:00,
2013-05-22 14:03:00,83.8,74.7,29.79,ESE,113,2.0,5.0,74,0.00,,,0.00,meteohub,2013-05-22 18:03:00,
2013-05-22 14:08:00,84.6,74.5,29.79,WNW,292,3.0,5.0,72,0.00,,,0.00,meteohub,2013-05-22 18:08:00,
2013-05-22 14:13:00,85.3,74.8,29.79,ESE,117,2.0,5.0,71,0.00,,,0.00,meteohub,2013-05-22 18:13:00,
2013-05-22 14:18:00,85.3,74.8,29.78,WNW,283,1.0,4.0,71,0.00,,,0.00,meteohub,2013-05-22 18:18:00,
2013-05-22 14:23:00,85.1,74.1,29.78,SSW,195,1.0,4.0,70,0.00,,,0.00,meteohub,2013-05-22 18:23:00,
2013-05-22 14:28:00,85.3,75.2,29.78,West,270,1.0,5.0,72,0.00,,,0.00,meteohub,2013-05-22 18:28:00,
2013-05-22 14:33:00,85.8,75.7,29.78,ESE,110,2.0,6.0,72,0.00,,,0.00,meteohub,2013-05-22 18:33:00,
2013-05-22 14:38:00,86.2,74.8,29.78,West,271,2.0,6.0,69,0.00,,,0.00,meteohub,2013-05-22 18:38:00,
2013-05-22 14:43:00,85.8,74.5,29.78,WNW,301,0.0,4.0,69,0.00,,,0.00,meteohub,2013-05-22 18:43:00,
2013-05-22 14:48:00,86.2,75.2,29.78,ENE,66,2.0,4.0,70,0.00,,,0.00,meteohub,2013-05-22 18:48:00,
2013-05-22 14:53:00,86.4,75.0,29.78,SSE,160,2.0,4.0,69,0.00,,,0.00,meteohub,2013-05-22 18:53:00,
2013-05-22 14:58:00,86.4,75.0,29.77,East,89,3.0,6.0,69,0.00,,,0.00,meteohub,2013-05-22 18:58:00,
2013-05-22 15:03:00,86.4,75.4,29.77,West,259,1.0,6.0,70,0.00,,,0.00,meteohub,2013-05-22 19:03:00,
2013-05-22 15:08:00,86.5,74.3,29.77,WNW,287,4.0,6.0,67,0.00,,,0.00,meteohub,2013-05-22 19:08:00,
2013-05-22 15:14:00,86.4,75.4,29.77,SW,232,2.0,6.0,70,0.00,,,0.00,meteohub,2013-05-22 19:14:00,
2013-05-22 15:19:00,86.4,74.1,29.76,SE,128,1.0,6.0,67,0.00,,,0.00,meteohub,2013-05-22 19:19:00,
2013-05-22 15:24:00,86.5,74.7,29.76,WSW,244,3.0,6.0,68,0.00,,,0.00,meteohub,2013-05-22 19:24:00,
2013-05-22 15:29:00,86.7,73.9,29.76,ESE,116,1.0,6.0,66,0.00,,,0.00,meteohub,2013-05-22 19:29:00,
2013-05-22 15:34:00,86.7,74.5,29.76,East,95,4.0,6.0,67,0.00,,,0.00,meteohub,2013-05-22 19:34:00,
2013-05-22 15:39:00,86.7,73.9,29.76,ESE,107,2.0,5.0,66,0.00,,,0.00,meteohub,2013-05-22 19:39:00,
2013-05-22 15:44:00,87.1,75.2,29.76,SE,136,1.0,6.0,68,0.00,,,0.00,meteohub,2013-05-22 19:44:00,
2013-05-22 15:49:00,87.1,73.9,29.76,SW,225,1.0,6.0,65,0.00,,,0.00,meteohub,2013-05-22 19:49:00,
2013-05-22 15:54:00,87.1,74.3,29.75,WSW,251,2.0,7.0,66,0.00,,,0.00,meteohub,2013-05-22 19:54:00,
2013-05-22 15:59:00,87.1,73.4,29.75,West,270,1.0,7.0,64,0.00,,,0.00,meteohub,2013-05-22 19:59:00,
2013-05-22 16:04:00,87.3,74.5,29.75,NE,56,2.0,7.0,66,0.00,,,0.00,meteohub,2013-05-22 20:04:00,
2013-05-22 16:09:00,87.3,73.6,29.75,East,94,1.0,5.0,64,0.00,,,0.00,meteohub,2013-05-22 20:09:00,
2013-05-22 16:14:00,87.3,73.6,29.75,ESE,103,2.0,7.0,64,0.00,,,0.00,meteohub,2013-05-22 20:14:00,
2013-05-22 16:19:00,87.8,74.1,29.75,WSW,245,0.0,7.0,64,0.00,,,0.00,meteohub,2013-05-22 20:19:00,
2013-05-22 16:24:00,88.3,75.0,29.74,SSE,167,2.0,7.0,65,0.00,,,0.00,meteohub,2013-05-22 20:24:00,
2013-05-22 16:30:00,88.2,73.4,29.74,SE,137,4.0,7.0,62,0.00,,,0.00,meteohub,2013-05-22 20:30:00,
2013-05-22 16:35:00,87.8,73.2,29.74,SSW,200,6.0,6.0,62,0.00,,,0.00,meteohub,2013-05-22 20:35:00,
2013-05-22 16:40:00,87.6,73.4,29.74,East,98,2.0,6.0,63,0.00,,,0.00,meteohub,2013-05-22 20:40:00,
2013-05-22 16:45:00,87.6,73.4,29.74,ESE,118,1.0,6.0,63,0.00,,,0.00,meteohub,2013-05-22 20:45:00,
2013-05-22 16:50:00,87.6,73.4,29.74,West,267,1.0,6.0,63,0.00,,,0.00,meteohub,2013-05-22 20:50:00,
2013-05-22 16:55:00,87.6,73.0,29.74,SSW,210,2.0,7.0,62,0.00,,,0.00,meteohub,2013-05-22 20:55:00,
2013-05-22 17:00:00,87.8,72.7,29.73,ESE,117,0.0,7.0,61,0.00,,,0.00,meteohub,2013-05-22 21:00:00,
2013-05-22 17:05:00,88.0,73.4,29.73,NW,314,0.0,7.0,62,0.00,,,0.00,meteohub,2013-05-22 21:05:00,
2013-05-22 17:10:00,87.8,72.7,29.73,West,277,4.0,8.0,61,0.00,,,0.00,meteohub,2013-05-22 21:10:00,
2013-05-22 17:15:00,88.0,72.3,29.73,ESE,121,5.0,8.0,60,0.00,,,0.00,meteohub,2013-05-22 21:15:00,
2013-05-22 17:20:00,87.6,72.5,29.73,West,278,0.0,8.0,61,0.00,,,0.00,meteohub,2013-05-22 21:20:00,
2013-05-22 17:25:00,88.0,71.8,29.73,SW,228,5.0,6.0,59,0.00,,,0.00,meteohub,2013-05-22 21:25:00,
2013-05-22 17:30:00,87.6,71.6,29.73,ENE,72,2.0,6.0,59,0.00,,,0.00,meteohub,2013-05-22 21:30:00,
2013-05-22 17:35:00,87.8,72.7,29.73,SW,218,1.0,6.0,61,0.00,,,0.00,meteohub,2013-05-22 21:35:00,
2013-05-22 17:41:00,88.0,72.3,29.73,SSE,148,1.0,6.0,60,0.00,,,0.00,meteohub,2013-05-22 21:41:00,
2013-05-22 17:46:00,87.6,71.6,29.73,WNW,290,3.0,7.0,59,0.00,,,0.00,meteohub,2013-05-22 21:46:00,
2013-05-22 17:51:00,87.4,70.9,29.73,WNW,287,3.0,7.0,58,0.00,,,0.00,meteohub,2013-05-22 21:51:00,
2013-05-22 17:56:00,87.3,72.1,29.73,East,91,3.0,7.0,61,0.00,,,0.00,meteohub,2013-05-22 21:56:00,
2013-05-22 18:01:00,86.9,70.9,29.73,SSW,205,3.0,6.0,59,0.00,,,0.00,meteohub,2013-05-22 22:01:00,
2013-05-22 18:06:00,86.5,71.1,29.73,South,169,1.0,9.0,60,0.00,,,0.00,meteohub,2013-05-22 22:06:00,
2013-05-22 18:11:00,86.4,71.8,29.73,NE,41,3.0,9.0,62,0.00,,,0.00,meteohub,2013-05-22 22:11:00,
2013-05-22 18:16:00,86.2,71.6,29.73,SW,217,2.0,9.0,62,0.00,,,0.00,meteohub,2013-05-22 22:16:00,
2013-05-22 18:21:00,85.8,71.8,29.73,WSW,248,1.0,6.0,63,0.00,,,0.00,meteohub,2013-05-22 22:21:00,
2013-05-22 18:26:00,86.0,72.3,29.73,WSW,243,1.0,6.0,64,0.00,,,0.00,meteohub,2013-05-22 22:26:00,
2013-05-22 18:31:00,85.8,72.1,29.73,East,79,0.0,5.0,64,0.00,,,0.00,meteohub,2013-05-22 22:31:00,
2013-05-22 18:36:00,85.6,71.6,29.73,WSW,250,2.0,5.0,63,0.00,,,0.00,meteohub,2013-05-22 22:36:00,
2013-05-22 18:41:00,85.5,72.0,29.73,ENE,61,2.0,4.0,64,0.00,,,0.00,meteohub,2013-05-22 22:41:00,
2013-05-22 18:46:00,84.9,70.5,29.73,WSW,252,0.0,5.0,62,0.00,,,0.00,meteohub,2013-05-22 22:46:00,
2013-05-22 18:51:00,84.7,70.3,29.73,WSW,243,3.0,5.0,62,0.00,,,0.00,meteohub,2013-05-22 22:51:00,
2013-05-22 18:56:00,84.4,70.3,29.74,ESE,121,3.0,7.0,63,0.00,,,0.00,meteohub,2013-05-22 22:56:00,
2013-05-22 19:01:00,83.8,70.3,29.74,WSW,250,2.0,7.0,64,0.00,,,0.00,meteohub,2013-05-22 23:01:00,
2013-05-22 19:07:00,83.5,70.5,29.74,SW,229,2.0,7.0,65,0.00,,,0.00,meteohub,2013-05-22 23:07:00,
2013-05-22 19:12:00,82.9,70.3,29.74,NW,321,2.0,6.0,66,0.00,,,0.00,meteohub,2013-05-22 23:12:00,
2013-05-22 19:17:00,82.6,70.5,29.74,South,184,2.0,7.0,67,0.00,,,0.00,meteohub,2013-05-22 23:17:00,
2013-05-22 19:22:00,82.2,70.5,29.74,ENE,60,2.0,7.0,68,0.00,,,0.00,meteohub,2013-05-22 23:22:00,
2013-05-22 19:27:00,81.9,70.7,29.75,WSW,242,0.0,7.0,69,0.00,,,0.00,meteohub,2013-05-22 23:27:00,
2013-05-22 19:32:00,81.7,70.9,29.75,ENE,68,1.0,5.0,70,0.00,,,0.00,meteohub,2013-05-22 23:32:00,
2013-05-22 19:37:00,81.3,70.5,29.75,WNW,301,1.0,5.0,70,0.00,,,0.00,meteohub,2013-05-22 23:37:00,
2013-05-22 19:42:00,81.1,70.3,29.75,WSW,254,3.0,5.0,70,0.00,,,0.00,meteohub,2013-05-22 23:42:00,
2013-05-22 19:47:00,81.0,70.7,29.75,East,91,0.0,7.0,71,0.00,,,0.00,meteohub,2013-05-22 23:47:00,
2013-05-22 19:52:00,80.8,70.9,29.75,SSW,212,1.0,7.0,72,0.00,,,0.00,meteohub,2013-05-22 23:52:00,
2013-05-22 19:57:00,80.4,70.5,29.75,WSW,250,2.0,7.0,72,0.00,,,0.00,meteohub,2013-05-22 23:57:00,
2013-05-22 20:02:00,80.2,70.9,29.75,SE,131,1.0,6.0,73,0.00,,,0.00,meteohub,2013-05-23 00:02:00,
2013-05-22 20:07:00,79.9,70.0,29.75,WNW,298,0.0,5.0,72,0.00,,,0.00,meteohub,2013-05-23 00:07:00,
2013-05-22 20:12:00,79.5,70.2,29.75,SW,229,0.0,5.0,73,0.00,,,0.00,meteohub,2013-05-23 00:12:00,
2013-05-22 20:17:00,79.2,69.8,29.75,SW,221,0.0,4.0,73,0.00,,,0.00,meteohub,2013-05-23 00:17:00,
2013-05-22 20:22:00,78.8,69.8,29.75,SW,224,0.0,4.0,74,0.00,,,0.00,meteohub,2013-05-23 00:22:00,
2013-05-22 20:27:00,78.4,69.4,29.76,SSW,203,0.0,4.0,74,0.00,,,0.00,meteohub,2013-05-23 00:27:00,
2013-05-22 20:32:00,78.1,70.0,29.76,SE,124,0.0,6.0,76,0.00,,,0.00,meteohub,2013-05-23 00:32:00,
2013-05-22 20:37:00,77.5,69.8,29.76,NNE,23,0.0,6.0,77,0.00,,,0.00,meteohub,2013-05-23 00:37:00,
2013-05-22 20:42:00,77.0,70.0,29.77,NNE,23,0.0,6.0,79,0.00,,,0.00,meteohub,2013-05-23 00:42:00,
2013-05-22 20:47:00,76.3,69.6,29.77,NNE,23,0.0,1.0,80,0.00,,,0.00,meteohub,2013-05-23 00:47:00,
2013-05-22 20:52:00,75.6,69.3,29.77,NNE,23,0.0,1.0,81,0.00,,,0.00,meteohub,2013-05-23 00:52:00,
2013-05-22 20:57:00,74.8,68.9,29.77,NE,36,0.0,1.0,82,0.00,,,0.00,meteohub,2013-05-23 00:57:00,
2013-05-22 21:02:00,74.5,69.3,29.77,ENE,59,1.0,1.0,84,0.00,,,0.00,meteohub,2013-05-23 01:02:00,
2013-05-22 21:07:00,74.5,69.3,29.77,East,90,0.0,1.0,84,0.00,,,0.00,meteohub,2013-05-23 01:07:00,
2013-05-22 21:12:00,74.8,69.3,29.77,ESE,102,0.0,2.0,83,0.00,,,0.00,meteohub,2013-05-23 01:12:00,
2013-05-22 21:17:00,75.2,69.6,29.78,ESE,108,0.0,2.0,83,0.00,,,0.00,meteohub,2013-05-23 01:17:00,
2013-05-22 21:22:00,75.4,69.8,29.78,ESE,107,0.0,2.0,83,0.00,,,0.00,meteohub,2013-05-23 01:22:00,
2013-05-22 21:27:00,75.2,70.0,29.78,ENE,68,0.0,0.0,84,0.00,,,0.00,meteohub,2013-05-23 01:27:00,
2013-05-22 21:32:00,75.0,69.8,29.78,ENE,68,0.0,0.0,84,0.00,,,0.00,meteohub,2013-05-23 01:32:00,
2013-05-22 21:37:00,74.8,70.0,29.78,ENE,68,0.0,0.0,85,0.00,,,0.00,meteohub,2013-05-23 01:37:00,
2013-05-22 21:42:00,74.7,69.8,29.79,ENE,68,0.0,0.0,85,0.00,,,0.00,meteohub,2013-05-23 01:42:00,
2013-05-22 21:47:00,74.5,70.0,29.79,SW,235,0.0,0.0,86,0.00,,,0.00,meteohub,2013-05-23 01:47:00,
2013-05-22 21:52:00,74.1,69.6,29.79,SW,235,0.0,2.0,86,0.00,,,0.00,meteohub,2013-05-23 01:52:00,
2013-05-22 21:57:00,73.9,69.8,29.80,East,82,0.0,2.0,87,0.00,,,0.00,meteohub,2013-05-23 01:57:00,
2013-05-22 22:02:00,73.8,69.6,29.80,East,81,0.0,2.0,87,0.00,,,0.00,meteohub,2013-05-23 02:02:00,
2013-05-22 22:07:00,73.6,69.8,29.80,North,352,0.0,2.0,88,0.00,,,0.00,meteohub,2013-05-23 02:07:00,
2013-05-22 22:12:00,73.6,70.2,29.80,ESE,114,0.0,1.0,89,0.00,,,0.00,meteohub,2013-05-23 02:12:00,
2013-05-22 22:17:00,73.8,70.3,29.81,SE,132,0.0,2.0,89,0.00,,,0.00,meteohub,2013-05-23 02:17:00,
2013-05-22 22:22:00,73.9,70.5,29.81,West,276,0.0,2.0,89,0.00,,,0.00,meteohub,2013-05-23 02:22:00,
2013-05-22 22:27:00,74.1,70.3,29.81,West,277,0.0,2.0,88,0.00,,,0.00,meteohub,2013-05-23 02:27:00,
2013-05-22 22:32:00,74.3,70.5,29.81,NNE,13,0.0,2.0,88,0.00,,,0.00,meteohub,2013-05-23 02:32:00,
2013-05-22 22:37:00,74.5,70.7,29.81,East,85,1.0,2.0,88,0.00,,,0.00,meteohub,2013-05-23 02:37:00,
2013-05-22 22:42:00,74.8,70.7,29.81,NE,49,0.0,2.0,87,0.00,,,0.00,meteohub,2013-05-23 02:42:00,
2013-05-22 22:47:00,74.8,70.7,29.81,East,89,1.0,2.0,87,0.00,,,0.00,meteohub,2013-05-23 02:47:00,
2013-05-22 22:52:00,74.8,70.7,29.81,North,4,0.0,3.0,87,0.00,,,0.00,meteohub,2013-05-23 02:52:00,
2013-05-22 22:57:00,74.8,70.7,29.81,North,350,0.0,3.0,87,0.00,,,0.00,meteohub,2013-05-23 02:57:00,
2013-05-22 23:02:00,74.7,70.5,29.80,SW,235,0.0,2.0,87,0.00,,,0.00,meteohub,2013-05-23 03:02:00,
2013-05-22 23:07:00,74.7,70.5,29.80,WSW,238,0.0,2.0,87,0.00,,,0.00,meteohub,2013-05-23 03:07:00,
2013-05-22 23:12:00,74.7,70.5,29.81,WNW,290,0.0,2.0,87,0.00,,,0.00,meteohub,2013-05-23 03:12:00,
2013-05-22 23:17:00,74.7,70.5,29.81,WNW,289,0.0,2.0,87,0.00,,,0.00,meteohub,2013-05-23 03:17:00,
2013-05-22 23:22:00,74.5,70.3,29.81,WNW,289,0.0,1.0,87,0.00,,,0.00,meteohub,2013-05-23 03:22:00,
2013-05-22 23:27:00,74.1,70.3,29.81,WNW,290,0.0,1.0,88,0.00,,,0.00,meteohub,2013-05-23 03:27:00,
2013-05-22 23:32:00,73.9,70.5,29.81,ENE,78,0.0,0.0,89,0.00,,,0.00,meteohub,2013-05-23 03:32:00,
2013-05-22 23:37:00,73.9,70.5,29.81,ENE,77,0.0,0.0,89,0.00,,,0.00,meteohub,2013-05-23 03:37:00,
2013-05-22 23:42:00,73.8,70.3,29.81,ENE,77,0.0,0.0,89,0.00,,,0.00,meteohub,2013-05-23 03:42:00,
2013-05-22 23:47:00,73.6,70.2,29.81,ENE,78,0.0,0.0,89,0.00,,,0.00,meteohub,2013-05-23 03:47:00,
2013-05-22 23:52:00,73.0,69.6,29.80,ENE,77,0.0,0.0,89,0.00,,,0.00,meteohub,2013-05-23 03:52:00,
2013-05-22 23:57:00,72.7,69.3,29.80,ENE,78,0.0,0.0,89,0.00,,,0.00,meteohub,2013-05-23 03:57:00,